Regional Weather Roundup
Issued by NWS

Home | Current Version | Previous Version | Text Only | Print | Product List | Glossary On
Versions: 1 2 3 4 5 6 7 8 9 10 11 12 13 14 15 16 17 18 19 20 21 22 23 24 25 26 27 28 29 30 31 32 33 34 35 36 37 38 39 40 41 42 43 44 45 46 47 48 49 50
000
ASUS43 KFSD 201302
RWRSD

WEATHER ROUNDUP FOR SOUTH DAKOTA
NATIONAL WEATHER SERVICE SIOUX FALLS SD
800 AM CDT FRI APR 20 2018

NOTE: "FAIR" INDICATES FEW OR NO CLOUDS BELOW 12,000 FEET WITH NO
SIGNIFICANT WEATHER AND/OR OBSTRUCTIONS TO VISIBILITY.


SDZ001>005-009-010-012>017-201400-
NORTHWEST AND NORTH CENTRAL SOUTH DAKOTA

CITY           SKY/WX    TMP DP  RH WIND       PRES   REMARKS
BUFFALO          N/A     36  28  73 E9        30.09S
FAITH            N/A     34  30  85 SE17      30.21R WCI  23
MOBRIDGE       CLOUDY    37  29  72 SE7       30.29R
$$

SDZ012>016-024>037-041>051-057-063-072>074-201400-
SOUTHWEST AND SOUTH CENTRAL SOUTH DAKOTA

CITY           SKY/WX    TMP DP  RH WIND       PRES   REMARKS
RAPID CTY ARPT CLOUDY    39  29  67 SE10      30.14S
PIERRE         CLOUDY    35  31  85 SE14      30.29R WCI  26
CUSTER         CLOUDY    33  23  66 E3        30.10S
ELLSWORTH AFB  CLOUDY    40  31  68 S10       30.14R
PHILIP         CLOUDY    34  30  85 E10       30.23R WCI  26
PINE RIDGE     CLOUDY    40  29  64 NE6       30.12R
SPEARFISH      FAIR      39  28  65 SE12      30.11S
WINNER         FAIR      36  30  79 SE9       30.28R
$$

SDZ004>011-016>023-039-040-201400-
NORTHEAST SOUTH DAKOTA

CITY           SKY/WX    TMP DP  RH WIND       PRES   REMARKS
ABERDEEN       PTSUNNY   32  27  81 SE3       30.39R
WATERTOWN      CLOUDY    32  24  72 SE8       30.40R WCI  25
BROOKINGS      CLOUDY    33  23  66 SE12      30.41R WCI  24
SISSETON         N/A     32  29  88 SE6       30.41R WCI  26
$$

SDZ017-020-022-023-036>040-048>070-201400-
SOUTHEAST SOUTH DAKOTA

CITY           SKY/WX    TMP DP  RH WIND       PRES   REMARKS
SIOUX FALLS    CLOUDY    34  22  61 SE5       30.42R WCI  30
HURON          CLOUDY    32  24  72 SE9       30.39R WCI  24
CHAMBERLAIN    CLOUDY    34  33  96 SE10      30.32S WCI  26
MITCHELL       CLOUDY    32  27  81 SE9       30.40R WCI  24
YANKTON        CLOUDY    32  28  85 MISG      30.40S
$$

ABBREVIATIONS USED IN REMARKS
   TC - TEMPERATURE IN CELSIUS
  WCI - WIND CHILL INDEX
   HX - HEAT INDEX
  VSB - VISIBILITY




USA.gov is the U.S. government's official web portal to all federal, state and local government web resources and services.